Flag Weather past 2 weeks in Grimstad, Norway

Now
47 °F

Cool.


Feels Like: 41 °F
Forecast: 42 / 48 °F
Wind: 13 mph from South

Location: Torungen Fyr

Current Time: Nov 23, 2014 at 1:47:43 PM

Latest Report: Nov 23, 2014 at 1:00 PM


Visibility: N/A

Pressure: 30.11 "Hg

Humidity: 90%

Dew point: 44 °F

Location of GrimstadLocation

Historic Weather in Grimstad — Graph

°F

Grimstad temperature yesterday

Maximum temperature yesterday: 46 °F (at 10:00 PM)
Minimum temperature yesterday: 37 °F (at 5:00 AM)
Average temperature yesterday: 40 °F

Past Weeks' High & Low Weather Summary

 TemperatureHumidityPressure
High52 °F (Nov 9, 8:00 PM)97% (Nov 13, 5:00 PM)30.50 "Hg (Nov 13, 5:00 PM)
Low36 °F (Nov 21, 10:00 AM)76% (Nov 21, 4:00 PM)29.64 "Hg (Nov 8, 12:00 PM)
Average45 °F90%30.08 "Hg
* Reported Nov 8 12:00 Noon — Nov 23 12:00 Noon, Grimstad, Weather by CustomWeather, © 2014

Note: Actual official high and low records may vary slightly from our data, if they occured in-between our weather recording intervals... More about our weather records

Advertising

Grimstad weather history for previous 24 hours

 ConditionsComfort  
Time TempWeatherWind HumidityBarometerVisibility
12:00 PM
Nov 23
47 °FCool.10 mph87%30.14 "HgN/A
11:00 AM47 °FCool.12 mph86%30.15 "HgN/A
10:00 AM47 °FCool.10 mph85%30.16 "HgN/A
9:00 AM47 °FCool.10 mph85%30.16 "HgN/A
8:00 AM46 °FCool.10 mph87%30.16 "HgN/A
7:00 AM46 °FCool.10 mph89%30.16 "HgN/A
6:00 AM46 °FCool.9 mph89%30.18 "HgN/A
5:00 AM45 °FCool.10 mph90%30.17 "HgN/A
4:00 AM45 °FQuite cool.9 mph93%30.18 "HgN/A
3:00 AM45 °FCool.12 mph86%30.19 "HgN/A
2:00 AM45 °FCool.10 mph88%30.20 "HgN/A
1:00 AM45 °FCool.9 mph87%30.21 "HgN/A
12:00 AM45 °FCool.10 mph82%30.22 "HgN/A
11:00 PM
Nov 22
46 °FCool.12 mph83%30.21 "HgN/A
10:00 PM46 °FCool.10 mph85%30.21 "HgN/A
9:00 PM45 °FQuite cool.12 mph87%30.20 "HgN/A
8:00 PM45 °FCool.12 mph90%30.19 "HgN/A
7:00 PM45 °FCool.14 mph89%30.20 "HgN/A
6:00 PM45 °FQuite cool.12 mph87%30.21 "HgN/A
5:00 PM40 °FChilly.7 mph96%30.22 "HgN/A
4:00 PM39 °FChilly.8 mph96%30.23 "HgN/A
3:00 PM39 °FChilly.8 mph95%30.23 "HgN/A
2:00 PM39 °FChilly.10 mph95%30.24 "HgN/A
1:00 PM38 °FChilly.9 mph94%30.26 "HgN/A
Weather by CustomWeather, © 2014

See weather overviewHow to use our weather pages